This is the latest recevied weather packets stored in our database for station/object DH0GMA. If no packets are shown the sender has not sent any weather packets the latest 10 day(s).
| Time | Temp. | Humidity | Pressure | Rain* | Wind** | Luminosity | Snow |
|---|---|---|---|---|---|---|---|
| 1777106264 | 15.56° C | 48% | 1017.9 hPa | 0 mm | - | - | - |
| 1777105664 | 15° C | 49% | 1017.9 hPa | 0 mm | - | - | - |
| 1777105064 | 14.44° C | 51% | 1018 hPa | 0 mm | - | - | - |
| 1777104464 | 13.89° C | 54% | 1018 hPa | 0 mm | - | - | - |
| 1777103864 | 13.33° C | 55% | 1018 hPa | 0 mm | - | - | - |
| 1777103264 | 12.78° C | 58% | 1018 hPa | 0 mm | - | - | - |
| 1777102664 | 11.67° C | 61% | 1018 hPa | 0 mm | - | - | - |
| 1777102066 | 11.11° C | 61% | 1018.3 hPa | 0 mm | - | - | - |
| 1777101466 | 10° C | 62% | 1018.2 hPa | 0 mm | - | - | - |
| 1777100866 | 10° C | 61% | 1018.3 hPa | 0 mm | - | - | - |
| 1777100265 | 9.44° C | 65% | 1018.3 hPa | 0 mm | - | - | - |
| 1777099665 | 7.78° C | 66% | 1018.4 hPa | 0 mm | - | - | - |
| 1777099065 | 7.22° C | 67% | 1018.5 hPa | 0 mm | - | - | - |
| 1777098465 | 7.22° C | 69% | 1018.4 hPa | 0 mm | - | - | - |
| 1777097864 | 6.67° C | 71% | 1018.4 hPa | 0 mm | - | - | - |
| 1777097264 | 6.67° C | 70% | 1018.5 hPa | 0 mm | - | - | - |
| 1777096664 | 6.11° C | 73% | 1018.4 hPa | 0 mm | - | - | - |
| 1777096066 | 5° C | 74% | 1018.5 hPa | 0 mm | - | - | - |
| 1777095465 | 5° C | 74% | 1018.4 hPa | 0 mm | - | - | - |
| 1777094865 | 4.44° C | 78% | 1018.3 hPa | 0 mm | - | - | - |
| 1777094265 | 3.33° C | 79% | 1018.4 hPa | 0 mm | - | - | - |
| 1777093665 | 2.78° C | 80% | 1018.2 hPa | 0 mm | - | - | - |
| 1777093065 | 2.22° C | 80% | 1018.3 hPa | 0 mm | - | - | - |
| 1777092465 | 2.22° C | 80% | 1018.1 hPa | 0 mm | - | - | - |
| 1777091865 | 1.67° C | 80% | 1018 hPa | 0 mm | - | - | - |
* Rain latest hour (hover to see other rain measurements)
** Current wind speed in m/s (hover to see current wind gust speed)